DW4277 Weather Reports


time (UTC)temp
C
wind
direction
speed
KPH
gust
KPH
rain 1hr
cm
rain 24hr
cm
rain mn
cm
humidity
%
barometer
mb
20260905223037 20 348 6.4 33.8 0.00 0.00 0.00 63 1021.5
20260905221539 20 331 24.1 38.6 0.00 0.00 0.00 63 1021.2
20260905220028 21 342 14.5 33.8 0.00 0.00 0.00 62 1021.1
20260905214523 21 342 17.7 38.6 0.00 0.00 0.00 62 1021.0
20260905213022 21 334 22.5 43.5 0.00 0.00 0.00 61 1020.8
20260905211536 21 333 27.4 51.5 0.00 0.00 0.00 60 1020.7
20260905210019 21 327 19.3 40.2 0.00 0.00 0.00 60 1020.6
20260905204518 21 329 20.9 35.4 0.00 0.00 0.00 59 1020.6
20260905203017 21 342 22.5 59.5 0.00 0.00 0.00 59 1020.5
20260905201516 21 333 12.9 51.5 0.00 0.00 0.00 60 1020.5
20260905200019 21 326 27.4 46.7 0.00 0.00 0.00 60 1020.3
20260905194513 21 315 14.5 51.5 0.00 0.00 0.00 61 1020.2
20260905193012 21 300 27.4 56.3 0.00 0.00 0.00 61 1020.1
20260905191511 21 316 16.1 51.5 0.00 0.00 0.00 61 1020.1
20260905190010 21 323 9.7 33.8 0.00 0.00 0.00 61 1019.9
20260905184508 22 327 22.5 40.2 0.00 0.00 0.00 59 1019.7
20260905183006 22 328 19.3 38.6 0.00 0.00 0.00 58 1019.5
20260905181506 22 324 24.1 64.4 0.00 0.00 0.00 57 1019.2
20260905180005 22 325 20.9 54.7 0.00 0.00 0.00 57 1019.1
20260905174503 22 315 16.1 56.3 0.00 0.00 0.00 56 1018.9
20260905173007 22 328 33.8 54.7 0.00 0.00 0.00 55 1018.7
20260905171506 23 325 24.1 48.3 0.00 0.00 0.00 53 1018.6
20260905170002 23 313 29.0 67.6 0.00 0.00 0.00 52 1018.5
20260905164502 23 330 33.8 74.0 0.00 0.00 0.00 51 1018.2
20260905163002 23 305 38.6 74.0 0.00 0.00 0.00 51 1018.1
20260905161606 23 320 41.8 72.4 0.00 0.00 0.00 51 1018.1
20260905160100 24 311 35.4 70.8 0.00 0.00 0.00 51 1017.9
20260905154559 24 343 45.1 88.5 0.00 0.00 0.00 50 1018.1
20260905153058 24 306 43.5 80.5 0.00 0.00 0.00 50 1017.9
20260905151558 24 338 49.9 77.2 0.00 0.00 0.00 50 1017.8
20260905150057 24 304 30.6 70.8 0.00 0.00 0.00 51 1017.8
20260905144557 24 348 45.1 74.0 0.00 0.00 0.00 51 1017.8
20260905143055 24 315 19.3 64.4 0.00 0.00 0.00 52 1018.0
20260905141556 24 329 43.5 72.4 0.00 0.00 0.00 52 1017.9
20260905140054 23 340 43.5 77.2 0.00 0.00 0.00 53 1018.2
20260905134556 23 330 51.5 78.9 0.00 0.00 0.00 52 1018.3
20260905133052 23 322 45.1 90.1 0.00 0.00 0.00 53 1018.3
20260905131554 23 320 43.5 86.9 0.00 0.00 0.00 54 1018.2
20260905130052 23 314 37.0 66.0 0.00 0.00 0.00 55 1018.3
20260905124552 22 354 40.2 72.4 0.00 0.00 0.00 56 1018.4
20260905123051 22 322 41.8 70.8 0.00 0.00 0.00 58 1018.3
20260905121549 22 332 35.4 67.6 0.00 0.00 0.00 58 1018.4
20260905120049 22 342 35.4 67.6 0.00 0.00 0.00 58 1018.4
20260905114605 22 321 41.8 72.4 0.00 0.00 0.00 57 1018.4
20260905113051 22 356 48.3 75.6 0.00 0.00 0.00 56 1018.4
20260905111552 22 338 40.2 75.6 0.00 0.00 0.00 59 1018.2
20260905110046 21 325 30.6 80.5 0.00 0.00 0.00 62 1018.4
20260905104547 21 11 37.0 69.2 0.00 0.00 0.00 64 1018.3
20260905103039 20 344 49.9 80.5 0.00 0.00 0.00 64 1018.5
20260905101539 20 348 38.6 66.0 0.00 0.00 0.00 67 1018.6
20260905100032 20 326 27.4 48.3 0.00 0.00 0.00 69 1018.6
20260905094530 19 330 9.7 30.6 0.00 0.00 0.00 71 1018.6
20260905093027 18 328 0.0 0.0 0.00 0.00 0.00 72 1018.6
20260905091526 18 328 0.0 22.5 0.00 0.00 0.00 72 1018.6
20260905090026 18 327 0.0 25.7 0.00 0.00 0.00 72 1018.6
20260905084532 18 325 16.1 40.2 0.00 0.00 0.00 70 1018.8
20260905083024 18 320 14.5 40.2 0.00 0.00 0.00 70 1018.7
20260905081524 18 327 29.0 40.2 0.00 0.00 0.00 69 1018.9
20260905080035 18 347 14.5 35.4 0.00 0.00 0.00 69 1019.0
20260905074520 18 339 19.3 35.4 0.00 0.00 0.00 68 1019.4
20260905073033 18 328 25.7 43.5 0.00 0.00 0.00 68 1019.3
20260905071516 18 354 17.7 35.4 0.00 0.00 0.00 67 1018.9
20260905070014 18 359 16.1 38.6 0.00 0.00 0.00 66 1018.9
20260905064514 18 342 20.9 41.8 0.00 0.00 0.00 63 1019.0
20260905063009 18 7 27.4 49.9 0.00 0.00 0.00 60 1018.5
20260905061505 20 19 22.5 66.0 0.00 0.00 0.00 58 1018.2
20260905060001 20 9 25.7 57.9 0.00 0.00 0.00 57 1017.7
20260905054558 20 333 22.5 61.2 0.00 0.00 0.00 56 1017.1
20260905053056 20 44 32.2 61.2 0.00 0.00 0.00 57 1016.2
20260905051551 20 358 14.5 45.1 0.00 0.00 0.00 59 1015.7
20260905050047 20 8 29.0 57.9 0.00 0.00 0.00 59 1015.3
20260905044544 20 37 32.2 66.0 0.00 0.00 0.00 61 1014.7
20260905043106 20 32 30.6 56.3 0.00 0.00 0.00 64 1013.9
20260905041539 20 19 20.9 45.1 0.00 0.00 0.00 63 1015.0
20260905040046 21 46 29.0 74.0 0.00 0.00 0.00 60 1014.7
20260905034533 21 62 30.6 59.5 0.00 0.00 0.00 65 1014.0
20260905033030 22 34 30.6 64.4 0.00 0.00 0.00 67 1013.7
20260905031527 23 50 12.9 38.6 0.00 0.00 0.00 67 1013.3
20260905030024 24 338 22.5 57.9 0.00 0.00 0.00 62 1012.3
20260905024523 24 21 0.0 0.0 0.00 0.00 0.00 54 1012.1
20260905023021 24 21 0.0 30.6 0.00 0.00 0.00 54 1011.9
20260905021520 24 335 1.6 17.7 0.00 0.00 0.00 53 1012.0
20260905020017 24 334 0.0 0.0 0.00 0.00 0.00 54 1011.7
20260905014519 24 334 0.0 0.0 0.00 0.00 0.00 53 1011.5
20260905013013 23 334 0.0 17.7 0.00 0.00 0.00 56 1011.7
20260905011508 22 336 4.8 35.4 0.00 0.00 0.00 61 1011.6
20260905010014 21 230 0.0 0.0 0.00 0.00 0.00 69 1011.5
20260905004508 21 230 0.0 0.0 0.00 0.00 0.00 71 1011.5
20260905003005 21 230 0.0 0.0 0.00 0.00 0.00 67 1011.3
20260905001504 21 230 0.0 0.0 0.00 0.00 0.00 68 1011.3
20260905000008 21 230 0.0 0.0 0.00 0.00 0.00 70 1011.2
20260904234502 21 230 0.0 0.0 0.00 0.00 0.00 68 1011.3
20260904233107 21 230 0.0 0.0 0.00 0.00 0.00 66 1011.2
20260904231559 21 230 0.0 0.0 0.00 0.00 0.00 67 1011.1
20260904224556 21 230 0.0 0.0 0.00 0.00 0.00 66 1010.9